Regional Weather Roundup
Issued by NWS Wakefield, VA

Home | Current Version | Previous Version | Text Only | Print | Product List | Glossary Off
Versions: 1 2 3 4 5 6 7 8 9 10 11 12 13 14 15 16 17 18 19 20 21 22 23 24 25 26 27 28 29 30 31 32 33 34 35 36 37 38 39 40 41 42 43 44 45 46 47 48 49 50

000
ASUS41 KAKQ 240210
RWRAKQ

REGIONAL WEATHER ROUNDUP
NATIONAL WEATHER SERVICE WAKEFIELD VA
1000 PM EDT WED JUL 23 2014

Note: "fair" indicates few or no clouds below 12,000 feet with no
significant weather and/or obstructions to visibility. * = Denotes
station may not report precipitation (e.g., rain,snow,etc.),
thunder or fog.

VAZ042-051-052>054-056-240300-
NORTHERN VIRGINIA

CITY           SKY/WX    TMP DP  RH WIND       PRES   REMARKS
WASH NATIONAL  MOCLDY    81  69  67 N6        29.85F
DULLES         PTCLDY    76  68  76 NW5       29.87S
FORT BELVOIR   CLOUDY    75  74  95 CALM      29.85F
QUANTICO       CLOUDY    78  70  76 W7        29.86S THUNDER
FREDERICKSBRG* CLOUDY    81  73  78 CALM      29.86R
STAFFORD*      CLOUDY    76  70  81 CALM      29.90S
WARRENTON      CLOUDY    77  74  91 CALM      29.86F
CULPEPER*      MOCLDY   N/A N/A N/A CALM      29.88F
MANASSAS*      MOCLDY    77  70  78 CALM      29.86F
LEESBURG*      PTCLDY    73  73 100 NW3       29.88F
WINCHESTER     PTCLDY    77  68  73 SW5       29.90S
$$

VAZ048-049-060>072-079>083-240300-
CENTRAL AND SOUTH CENTRAL VIRGINIA...AND NORTH CENTRAL NORTH CAROLINA

CITY           SKY/WX    TMP DP  RH WIND       PRES   REMARKS
RICHMOND       PTCLDY    82  70  66 S8        29.86S
CHESTERFIELD*  CLEAR     82  64  54 S3        29.89S
HANOVER        PTCLDY    86  69  56 SW5       29.87S
TAPPAHANNOCK*  PTCLDY    82  68  62 S3        29.86S
CHARLOTTSVILLE MOCLDY    73  71  93 CALM      29.89S
ORANGE*        MOCLDY    73  68  83 E8        29.91R
LOUISA*        MOCLDY    72  70  94 NE3       29.88S
FARMVILLE*     CLEAR     81  72  74 SW3       29.86S
SOUTH HILL*    MOCLDY    81  73  78 S7        29.96R
ROANOKE RAPIDS MOCLDY    81  72  74 SW5       29.91S
RALEIGH        PTCLDY    77  70  79 SW5       29.94R
$$

VAZ088>098-240300-
SOUTHEAST VIRGINIA

CITY           SKY/WX    TMP DP  RH WIND       PRES   REMARKS
NORFOLK        CLEAR     83  73  72 SW10      29.89S
VIRGINIA BEACH PTCLDY    82  75  79 S12       29.89S
NORFOLK NAVAL  PTCLDY    85  74  69 S8        29.90F
WEST POINT*    PTCLDY    84  72  67 S3        29.87S
NEWPORT NEWS   CLEAR     87  74  64 SW10      29.88S HX  95
LANGLEY AFB    CLEAR     84  75  75 S10       29.88S
FORT EUSTIS    PTCLDY    83  75  75 S6        29.86F
WILLIAMSBURG*  CLEAR     84  75  74 S6        29.88S
FRANKLIN*      PTCLDY    81  73  78 S7        29.90S
WAKEFIELD      PTCLDY    82  74  76 S6        29.88F
$$

VAZ020-022-025-037-045-240300-
WESTERN AND SOUTHWEST VIRGINIA

CITY           SKY/WX    TMP DP  RH WIND       PRES   REMARKS
STAUNTON*      MOCLDY    71  68  90 NW3       29.96S
HOT SPRINGS VA MOCLDY    67  60  77 NW7       30.11R
LYNCHBURG      PTCLDY    79  69  71 SW3       29.93R
DANVILLE       PTCLDY    76  72  87 W3        29.92S
MARTINSVILLE   PTCLDY    72  69  90 CALM      29.97S
ROANOKE        NOT AVBL
BLACKSBURG       N/A     73  70  88 CALM      30.03S
DUBLIN*        PTCLDY    75  68  80 W6        30.03S
MARION*        MOCLDY    72  70  92 SW3       30.08S
HILLSVILLE*    MOCLDY    69  66  91 S3        30.06R
RICHLANDS*     MOCLDY    73  69  87 SW5       30.07R
WISE*          MOCLDY    68  66  94 W5        30.09R
ABINGDON*      MOCLDY    73  70  88 CALM      30.05S
$$

MDZ021>025-VAZ099-100-240300-
SOUTHERN MARYLAND AND THE DELMARVA PENINSULA

CITY           SKY/WX    TMP DP  RH WIND       PRES   REMARKS
PATUXENT RIVER CLOUDY    82  75  79 S8        29.82F
BAY BRIDGE APT TSTM      77  72  83 N3        29.86R
LEONARDTOWN    MOCLDY    82  70  65 S6        29.83F
DOVER          CLOUDY    72  72 100 NE5       29.84S
GEORGETOWN     CLOUDY    79  73  82 S15       29.84F
EASTON         PTCLDY    82  77  83 S7        29.84F
CAMBRIDGE      CLOUDY    81  73  78 S7        29.81F
SALISBURY      NOT AVBL
OCEAN CITY     PTCLDY    79  76  90 SW8       29.86F
WALLOPS ISLAND PTCLDY    79  76  90 SW13      29.87F
ACCOMACK*        N/A     79  73  83 S5        29.87S
$$

NCZ012>017-030>032-240300-
EASTERN NORTH CAROLINA

CITY           SKY/WX    TMP DP  RH WIND       PRES   REMARKS
ELIZABETH CITY CLEAR     79  75  87 SW9       29.92S
AHOSKIE*       PTCLDY    78  73  84 S3        29.91F
EDENTON*       CLEAR     80  76  87 SW6       29.93F
CURRITUCK*     CLEAR     81  72  74 SW6       29.92S
KILL DEVIL HLS CLEAR     80  75  86 SW8       29.92S
MANTEO         NOT AVBL
CAPE HATTERAS  MOCLDY    79  77  94 W9        29.95R
GOLDSBORO      CLEAR     80  78  95 S5        29.91S
WASHINGTON     CLEAR     78  76  91 S3        29.93S
GREENVILLE     CLEAR     79  73  83 CALM      29.95R
NEW BERN       PTCLDY    80  75  84 S5        29.95S
WILMINGTON     PTCLDY    80  74  81 SW7       29.96S
$$

VAZ048-240300-
ELSEWHERE

CITY           SKY/WX    TMP DP  RH WIND       PRES   REMARKS
HARRISBURG PA  MOCLDY    76  70  82 E3        29.86S
BALTIMORE      MOCLDY    76  71  85 CALM      29.84S
ANNAPOLIS      LGT RAIN  80  71  74 N14       29.84F
ANDREWS AFB    MOCLDY    81  70  69 NW7       29.84F THUNDER
WILMINGTON DE  CLOUDY    73  71  93 CALM      29.85F
PHILADELPHIA   LGT RAIN  74  69  85 SE3       29.85F
WILDWOOD NJ*   CLOUDY    77  70  78 NW9G16    29.89R
ATLANTIC CITY  CLOUDY    77  72  84 SW6       29.85S
HENDERSON NC   CLEAR     80  69  70 S7        29.93R
GREENSBORO     PTCLDY    79  70  74 W6        29.94S
ROCKY MOUNT    CLEAR     78  73  84 S3        29.92S
FAYETTEVILLE   CLEAR     80  72  76 SW9       29.94S
CHARLOTTE      PTCLDY    76  69  79 CALM      29.97S
$$

VAZ100-240300-
MARINE

STATION/POSITION TIME  TEMP    WIND        PRES    WAVE   SWELL
                       AIR SEA DIR/SP/G            HT/PER HT/PER
                 (UTC) (F)     (DEG/KT/KT) (MB)    (FT/S) (FT/S)
44066 TX TWR #4  0200   75 74  210/ 14/ 16 1011.0F   3/ 9   2/ 9
CAPE MAY NJ      0200   77 79  180/  8/ 11 1010.5F
LEWES DE         0200   80 71  190/  4/  6 1010.4F
15NM E FENWICK I 0200   77 76              1011.2F   3/ 4
OCEAN-CITY-INLET 0200   74 72  200/ 11/ 13 1010.8F
WACHAPREAGUE VA  0200   80 84  220/  5/  8 1011.5F
THOMAS POINT MD  0200   79 79   20/ 21/ 22 1010.8R
GOOSES REEF MD   0200   81     180/ 12/ 14 1010.0F
COVE POINT MD    0200   81     190/ 13/ 14 1009.7F
SOLOMONS ISLAND  0200      83                N/A
BISHOPS HEAD MD  0200   82 84  160/ 11/ 15 1010.0F
PINEY POINT MD   0200          210/ 10/ 11   N/A
POTOMAC MD       0200   83     180/ 10/ 12 1009.9F
CAMBRIDGE MD     0200   82 80  180/  7/ 12 1009.5F
LEWISETTA VA     0200   84 83  210/  8/ 10 1010.1F
RAPPAHANNOCK LGT 0200          180/ 14/ 15 1011.8F
STINGRAY PT      0200   84     200/ 10/ 12 1011.9F
YORK RVR RNG VA  0200   84     220/ 13/ 15 1011.0S
YORKTOWN VA      0200   85 80  210/  7/ 10 1011.3S
JAMESTOWN VA     0200   82     210/  8/  8   N/A
DOMINION TERM VA 0200   83     210/  8/  9 1012.1F
KIPTOPEKE VA     0200      81  200/  8/ 10   N/A
CHES BAY BRIDGE  0200   84 77  190/ 12/ 14 1011.3F
CAPE HENRY VA    0200   83     190/  6/  9 1011.0F
WILLOUBY STN VA  0200          230/ 14/ 16 1011.2F
S CRANEY ISL VA  0200          190/  8/ 11 1012.1F
CAPE HENRY BUOY  0200      78                N/A     2/11
1ST LANDING BUOY 0200   82     210/  8/ 10 1011.8S
CAPE CHARLES BUO 0200      77                N/A     2/10
OFFSHORE WE BUOY 0200      78                N/A     3/ 3
64NM E OF VA BCH 0200   80 79  210/ 16/ 17 1012.5R   3/ 4   2/ 7
DUCK PIER NC     0200   81 74  220/ 12/ 14 1012.5R
44056 DUCK FRF   0200                        N/A     2/10
OREGON INLET NC  0200   81 85  230/ 14/ 16 1013.5R
HATTERAS NC      0200   79 83  230/  8/ 12 1014.4R
DIAMOND SHLS NC  0200          VRB 17/ 19  1013.7S   4/ 7   2/ 7
CAPE LOOKOUT NC  0100   80     230/  9/ 12 1014.4S
$$


USA.gov is the U.S. government's official web portal to all federal, state and local government web resources and services.